EN

Hourly Weather Dzielce

Today, 26 October, Monday

Time Temperature Precipitation Wind Pressure Humidity
00:00 +11°C° 0 mm 4 mps 741 mmHg 90%
01:00 +11°C° 0 mm 4 mps 740 mmHg 91%
02:00 +11°C° 0 mm 4 mps 740 mmHg 92%
03:00 +11°C° 0 mm 4 mps 740 mmHg 93%
04:00 +11°C° 0 mm 4 mps 740 mmHg 94%
05:00 +10°C° 0 mm 3 mps 739 mmHg 95%
06:00 +10°C° 0 mm 3 mps 739 mmHg 95%
07:00 +10°C° 0 mm 3 mps 739 mmHg 94%
08:00 +10°C° 0 mm 3 mps 739 mmHg 94%
09:00 +12°C° 0 mm 4 mps 739 mmHg 87%
10:00 +14°C° 0 mm 4 mps 739 mmHg 80%
11:00 +15°C° 0 mm 5 mps 739 mmHg 72%
12:00 +16°C° 0 mm 5 mps 739 mmHg 69%
13:00 +17°C° 0 mm 5 mps 739 mmHg 66%
14:00 +17°C° 0 mm 6 mps 739 mmHg 63%
15:00 +16°C° 0 mm 5 mps 739 mmHg 67%
16:00 +15°C° 0 mm 4 mps 739 mmHg 71%
17:00 +14°C° 0 mm 4 mps 738 mmHg 75%
18:00 +14°C° 0 mm 4 mps 739 mmHg 77%
19:00 +13°C° 0 mm 4 mps 739 mmHg 79%
20:00 +13°C° 0 mm 4 mps 739 mmHg 81%
21:00 +13°C° 0 mm 5 mps 739 mmHg 80%
22:00 +13°C° 0 mm 5 mps 739 mmHg 79%
23:00 +13°C° 0 mm 5 mps 739 mmHg 78%

Tomorrow, 27 October, Tuesday

Time Temperature Precipitation Wind Pressure Humidity
00:00 +13°C° 0 mm 5 mps 739 mmHg 78%
01:00 +13°C° 0 mm 5 mps 739 mmHg 79%
02:00 +13°C° 0 mm 5 mps 739 mmHg 80%
03:00 +13°C° 0 mm 4 mps 739 mmHg 81%
04:00 +12°C° 0 mm 4 mps 739 mmHg 82%
05:00 +12°C° 0 mm 4 mps 739 mmHg 84%
06:00 +12°C° 0 mm 4 mps 740 mmHg 84%
07:00 +12°C° 0 mm 4 mps 740 mmHg 84%
08:00 +12°C° 0 mm 4 mps 740 mmHg 84%
09:00 +13°C° 0 mm 4 mps 740 mmHg 78%
10:00 +15°C° 0 mm 5 mps 740 mmHg 73%
11:00 +16°C° 0 mm 5 mps 740 mmHg 67%
12:00 +17°C° 0 mm 5 mps 740 mmHg 64%
13:00 +19°C° 0 mm 4 mps 740 mmHg 60%
14:00 +19°C° 0 mm 4 mps 740 mmHg 57%
15:00 +18°C° 0 mm 4 mps 740 mmHg 63%
16:00 +17°C° 0 mm 3 mps 740 mmHg 68%
17:00 +16°C° 0 mm 3 mps 740 mmHg 73%
18:00 +14°C° 0 mm 3 mps 740 mmHg 77%
19:00 +14°C° 0 mm 3 mps 740 mmHg 81%
20:00 +13°C° 0 mm 3 mps 740 mmHg 85%
21:00 +12°C° 0 mm 3 mps 740 mmHg 87%
22:00 +12°C° 0 mm 3 mps 740 mmHg 89%
23:00 +12°C° 0 mm 3 mps 740 mmHg 91%

Day after tomorrow, 28 October, Wednesday

Time Temperature Precipitation Wind Pressure Humidity
00:00 +12°C° 0 mm 3 mps 741 mmHg 90%
01:00 +12°C° 0 mm 2 mps 741 mmHg 90%
02:00 +12°C° 0 mm 2 mps 741 mmHg 90%
03:00 +12°C° 0 mm 2 mps 741 mmHg 90%
04:00 +10°C° 0 mm 2 mps 741 mmHg 90%
05:00 +11°C° 0 mm 1 mps 741 mmHg 90%
06:00 +11°C° 0 mm 1 mps 741 mmHg 90%
07:00 +11°C° 0 mm 1 mps 742 mmHg 90%
08:00 +10°C° 0 mm 0 mps 742 mmHg 90%
09:00 +11°C° 0 mm 0 mps 742 mmHg 85%
10:00 +13°C° 0 mm 0 mps 742 mmHg 79%
11:00 +14°C° 0 mm 0 mps 742 mmHg 74%
12:00 +15°C° 0 mm 0 mps 742 mmHg 71%
13:00 +18°C° 0 mm 1 mps 742 mmHg 68%
14:00 +18°C° 0 mm 1 mps 742 mmHg 65%
15:00 +16°C° 0 mm 1 mps 742 mmHg 69%
16:00 +15°C° 0 mm 1 mps 742 mmHg 74%
17:00 +14°C° 0 mm 1 mps 742 mmHg 78%
18:00 +14°C° 0 mm 1 mps 742 mmHg 81%
19:00 +13°C° 0 mm 1 mps 742 mmHg 83%
20:00 +12°C° 0 mm 1 mps 742 mmHg 85%
21:00 +12°C° 0 mm 1 mps 742 mmHg 85%
22:00 +12°C° 0 mm 2 mps 742 mmHg 86%
23:00 +12°C° 0 mm 2 mps 742 mmHg 86%

29 October, Thursday

Time Temperature Precipitation Wind Pressure Humidity
00:00 +12°C° 0 mm 2 mps 742 mmHg 86%
01:00 +11°C° 0 mm 1 mps 742 mmHg 87%
02:00 +11°C° 0 mm 1 mps 742 mmHg 88%
03:00 +11°C° 0 mm 1 mps 742 mmHg 89%
04:00 +11°C° 0 mm 1 mps 742 mmHg 89%
05:00 +11°C° 0 mm 1 mps 742 mmHg 90%
06:00 +10°C° 0 mm 1 mps 743 mmHg 90%
07:00 +10°C° 0 mm 1 mps 743 mmHg 91%
08:00 +10°C° 0 mm 1 mps 743 mmHg 92%
09:00 +12°C° 0 mm 1 mps 743 mmHg 86%
10:00 +13°C° 0 mm 1 mps 743 mmHg 81%
11:00 +15°C° 0 mm 1 mps 744 mmHg 75%
12:00 +15°C° 0 mm 2 mps 744 mmHg 72%
13:00 +16°C° 0 mm 2 mps 744 mmHg 69%
14:00 +16°C° 0 mm 2 mps 744 mmHg 66%
15:00 +15°C° 0 mm 2 mps 744 mmHg 70%
16:00 +14°C° 0 mm 2 mps 744 mmHg 74%
17:00 +13°C° 0 mm 1 mps 744 mmHg 78%
18:00 +13°C° 0 mm 1 mps 744 mmHg 80%
19:00 +12°C° 0 mm 2 mps 745 mmHg 82%
20:00 +12°C° 0 mm 2 mps 745 mmHg 84%
21:00 +12°C° 0 mm 2 mps 745 mmHg 83%
22:00 +12°C° 0 mm 2 mps 746 mmHg 82%
23:00 +12°C° 0 mm 2 mps 746 mmHg 81%

30 October, Friday

Time Temperature Precipitation Wind Pressure Humidity
00:00 +12°C° 0 mm 2 mps 746 mmHg 80%
01:00 +12°C° 0 mm 2 mps 746 mmHg 80%
02:00 +12°C° 0 mm 2 mps 747 mmHg 80%
03:00 +10°C° 0 mm 2 mps 747 mmHg 83%
04:00 +9°C° 0 mm 2 mps 747 mmHg 87%
05:00 +9°C° 0 mm 3 mps 747 mmHg 90%
06:00 +9°C° 0 mm 3 mps 747 mmHg 89%
07:00 +8°C° 0 mm 3 mps 747 mmHg 89%
08:00 +8°C° 0 mm 2 mps 747 mmHg 88%
09:00 +10°C° 0 mm 3 mps 747 mmHg 81%
10:00 +11°C° 0 mm 4 mps 747 mmHg 73%
11:00 +13°C° 0 mm 4 mps 747 mmHg 66%
12:00 +13°C° 0 mm 4 mps 747 mmHg 63%
13:00 +14°C° 0 mm 5 mps 747 mmHg 60%
14:00 +15°C° 0 mm 5 mps 747 mmHg 57%
15:00 +14°C° 0 mm 4 mps 747 mmHg 62%
16:00 +13°C° 0 mm 3 mps 747 mmHg 68%
17:00 +12°C° 0 mm 3 mps 747 mmHg 73%
18:00 +12°C° 0 mm 3 mps 747 mmHg 76%
19:00 +12°C° 0 mm 3 mps 747 mmHg 79%
20:00 +11°C° 0 mm 3 mps 748 mmHg 83%
21:00 +11°C° 0 mm 3 mps 748 mmHg 84%
22:00 +11°C° 0 mm 3 mps 748 mmHg 86%
23:00 +10°C° 0 mm 3 mps 748 mmHg 88%

31 October, Saturday

Time Temperature Precipitation Wind Pressure Humidity
00:00 +10°C° 0 mm 3 mps 748 mmHg 87%
01:00 +10°C° 0 mm 3 mps 748 mmHg 87%
02:00 +10°C° 0 mm 3 mps 748 mmHg 87%
03:00 +10°C° 0 mm 3 mps 748 mmHg 88%
04:00 +10°C° 0 mm 3 mps 747 mmHg 88%
05:00 +9°C° 0 mm 3 mps 747 mmHg 88%
06:00 +9°C° 0 mm 3 mps 748 mmHg 89%
07:00 +9°C° 0 mm 3 mps 748 mmHg 89%
08:00 +9°C° 0 mm 2 mps 748 mmHg 90%
Show more